Stevenson, Washington, United States (98648)
Lat: 45.70N, Lon: 121.88W
Wx Zone: WAZ023
Local Info
Past Weather Observations for Today

NOTE: This archive is for the closest National Weather Service station to Stevenson. Information may differ from the station used for current weather conditions.

Click here for Long-term Archive

Time Weather Temperature Dewpoint Humidity Pressure Winds Precip Visibility
15:53
Clear
68°F / 20°C 46°F / 8°C 46% 30.3 in
(1026 mb)
SSW 5.8 mph
(SSW 9 kph)
- 10SM
14:53
Clear
70°F / 21°C 46°F / 8°C 43% 30.33 in
(1027 mb)
Variable 3.5 mph
(Variable 6 kph)
- 10SM
13:53
Clear
66°F / 19°C 46°F / 8°C 49% 30.33 in
(1027 mb)
SSW 4.6 mph
(SSW 7 kph)
- 10SM
12:53
Clear
64°F / 18°C 48°F / 9°C 56% 30.36 in
(1028 mb)
Variable 4.6 mph
(Variable 7 kph)
- 10SM
11:53
Clear
63°F / 17°C 52°F / 11°C 68% 30.39 in
(1029 mb)
Variable 5.8 mph
(Variable 9 kph)
- 10SM
10:53
Clear
59°F / 15°C 52°F / 11°C 77% 30.39 in
(1029 mb)
Calm - 10SM
10:38
Partly Cloudy
61°F / 16°C 52°F / 11°C 72% 30.39 in
(1029 mb)
Calm - 10SM
09:53
Overcast
57°F / 14°C 52°F / 11°C 82% 30.39 in
(1029 mb)
Calm - 10SM
09:11
Overcast
55°F / 13°C 52°F / 11°C 88% 30.39 in
(1029 mb)
NE 3.5 mph
(NE 6 kph)
- 10SM
08:53
Overcast
55°F / 13°C 52°F / 11°C 88% 30.39 in
(1029 mb)
Calm - 10SM
08:33
Overcast
55°F / 13°C 52°F / 11°C 88% 30.39 in
(1029 mb)
Calm - 10SM
07:53
Overcast
55°F / 13°C 52°F / 11°C 88% 30.36 in
(1028 mb)
Calm - 10SM
07:35
Overcast
55°F / 13°C 52°F / 11°C 88% 30.36 in
(1028 mb)
ENE 3.5 mph
(ENE 6 kph)
- 10SM
06:53
Overcast
54°F / 12°C 52°F / 11°C 94% 30.36 in
(1028 mb)
ENE 4.6 mph
(ENE 7 kph)
- 10SM
05:53
Overcast
54°F / 12°C 54°F / 12°C 100% 30.33 in
(1027 mb)
Calm - 8SM
04:53
Overcast
54°F / 12°C 54°F / 12°C 100% 30.33 in
(1027 mb)
S 4.6 mph
(S 7 kph)
- 8SM
03:53
Overcast
54°F / 12°C 54°F / 12°C 100% 30.33 in
(1027 mb)
SE 5.8 mph
(SE 9 kph)
- 9SM
02:53
Overcast
55°F / 13°C 54°F / 12°C 94% 30.33 in
(1027 mb)
Calm - 8SM
01:53
Overcast
54°F / 12°C 52°F / 11°C 94% 30.33 in
(1027 mb)
Calm - 8SM
01:21
Overcast
Fog And Mist
52°F / 11°C 52°F / 11°C 100% 30.3 in
(1026 mb)
S 3.5 mph
(S 6 kph)
- 3SM
01:15
Overcast
Fog And Mist
52°F / 11°C 52°F / 11°C 100% 30.3 in
(1026 mb)
Calm - 1 1/4SM
01:03
Obscured
Fog
50°F / 10°C 50°F / 10°C 100% 30.3 in
(1026 mb)
Calm - 1/2SM
00:53
Mostly Cloudy
Fog And Mist
52°F / 11°C 50°F / 10°C 94% 30.3 in
(1026 mb)
Calm - 3/4SM
00:50
Mostly Cloudy
Fog And Mist
52°F / 11°C 52°F / 11°C 100% 30.3 in
(1026 mb)
Calm - 3/4SM
00:45
Partly Cloudy
Fog And Mist
52°F / 11°C 50°F / 10°C 94% 30.3 in
(1026 mb)
Calm - 1SM
00:29
Partly Cloudy
Fog And Mist
48°F / 9°C 48°F / 9°C 100% 30.27 in
(1025 mb)
SE 3.5 mph
(SE 6 kph)
- 3/4SM
00:25
Partly Cloudy
Fog And Mist
48°F / 9°C 48°F / 9°C 100% 30.27 in
(1025 mb)
Calm - 1 3/4SM
00:08
Partly Cloudy
Fog And Mist
52°F / 11°C 52°F / 11°C 100% 30.27 in
(1025 mb)
NNE 3.5 mph
(NNE 6 kph)
- 3SM
00:06
Partly Cloudy
Fog And Mist
52°F / 11°C 52°F / 11°C 100% 30.27 in
(1025 mb)
NE 4.6 mph
(NE 7 kph)
- 1 1/4SM
00:04
Obscured
Fog And Mist
52°F / 11°C 52°F / 11°C 100% 30.27 in
(1025 mb)
NE 4.6 mph
(NE 7 kph)
- 3/4SM
Time Weather Temperature Dewpoint Humidity Pressure Winds Precip Visibility


Weather for websites

WeatherForYou.com, LLC is not responsible for any damages or problems caused by this service. Current weather conditions are obtained from the closest station including government and personal stations which may have varying degrees of accuracy. Weather forecasts are derived from the NOAA NDFD. Like all things, this site belongs to Jesus Christ... He just trusts us to maintain it. If you have any questions or comments email webmaster@weatherforyou.com

Copyright © 2016, WeatherForYou.com LLC. All rights reserved.